DECAYED

ARIANE 4O DEB, 60247 (Decayed)

Orbit data source: Space-Track

ARIANE 4O DEB, 60247 was space debris in SSO originally from a launch on Tue, 24 Mar 1998 UTC launched from the French Guiana (FRGUI). Debris objects in space refer to the collection of defunct objects orbiting the Earth. Examples of debris include non-operational satellites, rocket bodies, and fragments generated from explosions, collisions, or faulty payload assembly.

Not visible in the next 10 days
ARIANE 4O DEB details
Identifier
60247, 1998-017J
Orbit
Decayed
Last TLE update2 months ago
Origin
Flag of FRCNES (FR)
ManufacturerUnknown
MissionDecayed spacecraft
Bus & MotorUnknown
MassUnknown
Launch date (UTC)
1998-03-24 (27 years ago)
Launch vehicleUnknown
Launch site
French Guiana (FRGUI)
Object type
Payload
Rocket body
Debris
Shape & HBRUnknown
Radar Cross SectionSmall (<0.1 m²)

Expand to show TLE details & history

TLE from 2 months ago
0 ARIANE 4O DEB
1 60247U 98017J   24303.02633675  .04101167  00000-0  13382+0 0  9994
2 60247  98.7677 314.1855 0021322 134.8763 225.4208 15.27495497 27380
Epoch: 2024-10-29T00:37Z
Definitive object data (Epoch: 2024-10-29T00:37:55.495Z)
Latitude-0°
Longitude-93.13982°
Altitude496.647 km
Speed7.611 km/s
True Right ascension20h 56m 44s
True Declination0° 00' 00"
Sunlit
Object was in daylight at TLE epoch
Visualization observer readout
Observer readout values are unavailable because the object's trajectory could not be propagated. This is usually caused when the trajectory data is faulty or the object's orbit has decayed.
Visualization observer readout
Observer readout values are unavailable because the object's trajectory could not be propagated. This is usually caused when the trajectory data is faulty or the object's orbit has decayed.
Orbital elements
Apogee altitude494.945 km
Perigee altitude465.698 km
Semi-major axis6,858.459 km
Eccentricity0.0021322
Inclination98.7677°
RAAN314.1855°
Arg. of periapsis134.8763°
True anomaly225.24709°
Mean anomaly225.4208°
Eccentric anomaly225.33391°
Mean motion3.82123 °/min
BSTAR0.13382
Orbital period94.21 mins
Loading maneuver chart data...
Loading historical data...
Loading historical data...
Loading historical data...
Loading historical data...
Loading historical data...
Loading historical data...
Loading historical data...

ARIANE 4O DEB Visibility forecast

Observer location: undefined°, undefined

This satellite is decayed
Span
Click to sort rows by Start time (UTC) header in descending order
Start Az.
Max El. time (UTC)
Max El. Az.
Max El.
End time (UTC)
End Az.
|